User: anonymous   Login
Location: Unspecified
(0.0000°N, 0.0000°E)
Time: 19:33:13
(UTC+00:00)
Language:

BEESAT 3 - Orbit

View from above orbital plane
View from above orbital plane
View from above satellite
View from above satellite

Ground track
Ground track

The orbit data is extracted from the following two-line orbital elements,

1 39134U 13015E   19340.65095241  .00000870  00000-0  48378-4 0  9998
2 39134  64.8615 186.4123 0037637 275.8775  83.8063 15.20552635366584
Epoch (UTC): 06 December 2019 15:37:22
Eccentricity: 0.0037637
inclination: 64.8615°
perigee height: 478 km
apogee height: 530 km
right ascension of ascending node: 186.4123°
argument of perigee: 275.8775°
revolutions per day: 15.20552635
mean anomaly at epoch: 83.8063°
orbit number at epoch: 36658

The dashed part of the orbit path shows where the satellite is in the earth's shadow,  

DLR